Theta_e
303 299 296 300 302 301 301 298 296 298 302 300 295 294 296 296 296 296 297 299 300 300 302 305 312 319 320 321 319 317 314 315 314 311 310 310 310 311 311 311 311 311 310 308
298 294 297 301 303 302 301 298 294 297 301 300 295 293 297 296 295 295 296 296 298 299 301 303 304 305 306 309 310 318 317 315 314 313 313 313 311 310 310 310 310 310 307 306
295 295 299 301 300 300 299 297 294 295 296 297 295 292 293 294 295 295 295 296 298 299 300 301 302 302 303 303 304 307 309 312 315 315 315 314 313 310 309 309 309 309 309 308
293 298 299 298 295 298 294 299 298 294 294 288 295 287 290 291 291 293 295 296 297 299 299 300 300 300 301 302 303 305 306 307 308 310 311 313 311 310 311 311 310 310 310 308
289 292 295 293 294 299 293 300 297 297 291 290 289 286 288 290 287 291 293 295 296 297 299 299 300 301 302 301 300 301 303 304 305 305 306 306 306 308 308 307 306 306 306 305
292 297 295 295 298 298 298 294 292 292 289 283 288 287 285 285 288 291 294 295 297 298 298 299 300 300 300 299 299 299 300 301 302 303 303 303 302 301 301 301 301 302 303 303
290 290 294 296 292 295 294 289 281 280 280 281 287 285 286 290 290 294 294 294 296 295 294 294 295 296 295 296 297 297 297 297 298 298 298 299 299 299 298 298 299 299 299 300
284 282 290 293 292 290 290 289 283 276 277 278 283 281 285 291 293 296 295 294 293 293 293 294 294 293 293 294 294 294 294 293 294 294 294 295 296 296 296 297 296 297 297 298
285 284 291 293 293 292 288 285 290 282 280 279 280 282 288 289 290 293 293 292 291 292 293 293 293 293 292 292 292 292 291 291 292 292 292 292 292 292 292 293 294 294 295 297
290 283 289 292 293 293 291 292 283 283 277 276 278 279 283 286 288 291 291 290 290 291 292 292 293 293 291 289 288 287 288 288 288 289 289 290 290 290 290 290 290 291 292 293
292 288 285 289 288 287 287 286 287 286 283 279 276 279 288 289 291 291 292 292 291 291 292 292 292 290 287 287 287 286 286 286 286 287 287 287 287 288 288 288 288 289 290 290
290 287 282 285 288 288 287 287 287 280 278 280 279 279 287 291 292 293 292 292 291 291 291 291 291 289 286 286 286 285 285 284 285 285 285 286 286 286 285 286 287 288 288 289
289 281 277 282 285 285 284 287 288 286 283 280 277 280 288 288 291 292 291 292 290 290 289 290 289 288 285 285 285 284 284 284 285 285 285 285 284 284 284 285 286 287 287 287
291 283 282 280 281 283 281 283 286 285 280 280 280 281 285 286 288 288 290 291 289 290 289 289 288 287 286 285 285 285 284 284 284 284 284 283 284 284 284 285 285 285 286 286
286 278 280 282 282 282 282 282 284 284 285 280 281 282 285 288 288 289 291 290 288 287 287 288 288 287 285 285 285 285 285 284 284 283 283 283 284 284 284 283 284 284 284 285
286 276 280 275 281 280 278 282 282 283 285 284 284 283 287 289 289 288 289 289 288 288 288 288 288 287 285 285 285 285 285 284 283 283 283 283 283 283 283 283 283 283 284 283
279 277 272 270 277 275 273 278 281 282 284 286 283 288 287 285 288 289 289 289 289 289 288 287 287 287 286 285 285 285 285 284 283 282 283 283 283 282 282 282 282 282 283 283
274 272 266 268 268 265 278 280 281 282 284 286 287 287 287 288 288 289 291 290 289 288 287 287 286 287 287 285 285 285 284 283 282 282 282 282 282 281 281 281 281 282 282 282
281 277 269 268 260 273 279 279 279 279 279 285 286 289 287 285 285 286 288 290 292 289 288 287 287 286 286 285 284 283 282 281 281 281 281 281 281 281 281 281 281 281 281 281
281 279 271 264 262 263 276 278 281 282 276 283 286 287 286 284 282 288 287 287 287 288 287 286 285 285 284 284 283 282 281 280 280 281 281 281 281 281 281 281 281 281 281 281
279 274 267 262 261 270 279 280 280 272 278 278 282 286 284 286 287 286 287 286 287 287 286 285 284 285 285 283 282 281 280 280 281 282 282 281 281 281 280 280 281 281 280 280
275 272 268 261 262 271 280 279 276 281 280 281 281 284 286 286 284 285 285 284 285 285 285 285 284 284 283 282 281 281 280 281 281 281 280 280 280 280 281 280 280 280 279 279
273 276 274 275 276 280 282 279 282 282 281 280 281 283 285 283 283 283 283 283 283 284 283 283 282 282 281 281 281 280 281 281 280 278 277 278 278 279 279 279 278 278 278 277
275 272 274 277 279 281 280 282 282 282 282 282 281 281 284 284 283 282 282 281 282 282 281 281 281 281 280 281 281 280 280 280 274 275 277 278 277 277 277 278 278 277 277 276
277 277 273 275 280 282 282 283 287 284 283 282 282 281 282 283 282 281 281 281 281 281 281 281 280 280 280 280 280 279 278 275 275 275 276 276 276 275 276 276 276 277 278 278
276 277 279 278 283 286 285 285 284 283 284 283 281 279 280 282 282 281 281 281 281 281 280 280 279 278 279 278 276 274 271 270 270 273 274 274 274 274 274 274 274 278 279 280
Wind_Speed
3 5 7 13 4 3 14 12 11 3 4 3 1 3 4 2 6 5 5 7 8 5 3 4 4 6 4 4 6 6 6 5 4 2 1 2 3 1 1 2 4 4 4 5
5 4 2 3 6 4 8 11 5 4 2 2 3 4 2 2 3 3 6 5 5 4 4 5 6 7 7 5 4 1 3 4 4 2 2 1 1 1 2 2 4 5 5 6
7 2 2 4 5 4 2 11 8 8 4 6 6 2 4 2 3 5 4 2 2 6 6 4 6 6 6 6 5 5 5 5 2 4 3 2 1 1 1 3 3 4 5 5
6 6 1 9 6 0 5 4 12 17 12 5 1 5 6 4 3 2 3 3 4 5 5 5 6 6 5 4 4 5 5 5 4 4 3 1 2 2 2 2 2 4 5 6
1 5 5 8 2 1 1 6 9 9 6 5 4 3 2 6 5 4 4 5 5 5 6 6 7 6 5 6 6 5 6 6 5 5 4 2 2 2 3 3 6 5 4 5
5 1 4 2 11 8 11 17 13 7 4 1 4 2 5 8 8 5 5 6 6 5 4 5 5 6 5 4 5 5 6 5 6 7 7 6 5 5 4 4 4 4 4 4
4 6 5 3 10 8 5 4 3 3 0 3 4 3 8 14 8 13 14 9 7 6 6 6 6 5 4 4 3 3 5 5 6 7 7 6 6 5 5 5 4 6 4 3
3 2 3 4 2 6 4 2 4 6 5 3 3 7 6 6 12 12 9 9 7 7 6 7 6 5 4 4 4 4 4 4 5 5 5 4 4 2 3 4 4 4 4 5
5 3 3 1 3 2 5 4 1 3 2 3 5 5 3 5 8 13 13 8 8 8 7 8 6 5 5 4 3 3 3 3 3 3 3 4 5 6 5 6 5 4 6 5
3 6 1 2 3 3 3 3 3 1 4 4 4 4 6 12 17 17 16 12 8 7 7 6 6 6 4 3 2 1 3 4 4 5 4 4 5 5 6 5 7 7 6 6
3 1 2 2 3 5 2 1 1 0 4 5 4 8 5 22 21 22 18 13 11 10 9 8 7 6 5 3 2 1 3 4 5 4 4 5 6 6 6 5 6 6 7 7
6 4 3 3 1 2 3 5 7 4 5 2 1 7 1 10 18 18 16 12 9 9 9 8 7 7 6 4 3 3 2 2 4 5 5 7 6 6 7 7 7 7 8 8
5 0 3 2 2 2 4 4 4 0 2 5 5 5 5 4 12 14 16 14 10 10 7 7 7 7 7 6 6 5 3 3 4 4 4 6 7 7 7 7 7 7 7 9
2 3 5 5 3 1 5 6 7 5 3 3 6 5 1 2 10 9 12 13 12 11 9 7 6 7 7 7 7 6 5 4 4 4 5 6 7 7 7 8 8 8 7 8
3 5 2 2 1 0 2 5 7 10 11 7 3 9 5 9 12 17 15 12 11 9 8 9 8 8 8 7 7 6 6 4 3 5 5 7 7 7 7 7 8 8 7 9
1 1 2 3 2 1 4 7 7 6 7 9 8 14 6 6 6 8 12 14 13 11 12 11 9 8 9 9 8 7 6 6 4 5 7 7 7 7 7 8 8 9 10 9
4 6 3 5 3 5 7 11 15 9 8 12 17 19 7 5 9 13 12 15 17 16 13 11 11 10 8 8 8 7 6 5 5 6 7 7 7 7 7 8 9 11 12 11
6 6 3 3 4 3 9 2 4 13 15 15 12 7 12 10 10 9 12 16 15 12 12 10 8 7 7 4 4 4 5 7 4 7 7 7 7 7 8 8 10 11 10 11
2 5 4 5 4 8 9 7 8 8 11 17 24 18 7 4 4 9 9 11 19 15 9 8 7 6 6 6 5 5 7 5 4 7 7 7 7 9 9 10 10 10 11 12
3 6 6 3 6 9 8 1 4 6 12 7 15 18 14 8 6 14 11 7 8 8 7 8 8 5 5 4 4 5 7 4 7 7 7 7 7 8 10 10 12 10 11 14
4 0 7 3 4 12 11 6 4 7 9 3 4 9 10 13 7 2 8 5 6 7 9 7 7 7 7 2 3 6 6 6 6 6 6 7 7 8 7 9 11 12 13 14
10 9 5 4 3 12 8 6 10 8 4 3 1 5 13 6 6 6 7 8 10 11 9 8 7 5 4 1 2 6 7 6 6 6 6 7 7 7 8 10 10 11 13 14
4 10 8 12 11 3 10 1 7 3 2 4 3 1 6 7 7 8 8 9 9 9 8 6 6 4 3 2 1 4 5 6 6 6 7 7 7 7 7 10 11 10 11 11
5 5 4 3 7 10 6 7 6 4 6 6 2 1 7 8 8 7 6 6 6 5 5 4 5 4 3 3 2 2 5 5 4 6 7 7 8 9 7 7 7 8 9 10
5 8 6 6 7 7 8 11 11 11 10 9 3 2 6 7 7 7 6 6 6 5 4 4 5 3 3 4 4 5 6 5 6 5 6 8 7 9 9 8 8 8 9 11
8 11 9 8 10 9 7 4 7 9 12 10 7 5 3 7 9 6 7 6 6 6 4 4 3 2 2 3 4 5 5 4 4 7 6 7 7 8 8 8 8 12 18 23
Wind_Direction
43 105 161 169 113 110 147 135 130 126 159 139 86 78 343 43 90 85 64 101 113 96 335 56 79 106 126 143 160 172 182 196 148 135 158 236 234 227 286 297 283 281 271 271
72 104 91 92 96 100 141 139 111 75 346 107 135 87 12 10 74 120 122 111 126 113 70 66 66 62 62 71 19 310 250 192 183 165 175 167 147 205 213 219 248 257 263 258
96 107 131 153 119 136 159 173 168 137 133 34 111 334 253 2 72 80 59 108 120 148 128 68 61 56 59 50 38 59 46 58 72 211 180 183 121 91 228 247 261 262 246 252
55 342 171 115 84 225 151 294 159 146 158 173 235 216 230 190 196 133 136 154 150 127 112 118 107 80 80 64 55 56 61 67 57 41 67 203 221 239 241 255 260 281 269 255
20 6 64 81 60 120 104 134 132 135 111 125 201 204 234 159 211 194 194 184 163 145 126 102 90 81 57 53 51 47 57 48 34 56 76 73 359 354 342 332 330 320 292 263
66 41 41 62 65 84 121 91 55 62 49 246 174 187 229 195 183 174 201 194 181 164 124 97 85 80 66 49 51 52 59 40 30 33 31 32 12 346 343 328 325 316 308 302
45 28 335 47 78 26 92 80 69 41 15 234 160 165 255 207 180 170 179 190 186 164 140 131 118 106 89 77 65 71 60 47 34 38 34 25 16 1 341 333 322 325 321 310
132 152 335 325 120 160 144 45 141 151 187 183 157 222 246 220 163 171 171 175 170 169 156 149 150 143 135 110 79 69 66 56 40 39 30 19 11 343 325 325 328 314 303 300
145 101 309 305 345 151 177 183 306 102 40 115 200 276 298 130 151 171 180 173 186 182 166 167 162 158 148 138 129 108 57 31 24 12 10 2 354 351 333 325 315 298 297 294
144 119 254 281 220 89 60 106 147 267 148 217 234 251 234 184 182 182 190 187 184 179 174 170 173 167 162 151 133 70 26 13 345 348 353 337 325 324 321 318 313 309 301 305
151 43 96 49 211 180 110 159 193 130 197 184 190 250 225 190 184 189 191 181 181 179 183 182 181 175 169 164 168 324 4 356 339 335 328 330 322 321 318 313 307 306 306 306
212 120 131 190 253 202 252 204 187 179 202 233 217 273 99 203 193 185 182 177 187 184 188 182 181 178 184 198 227 249 306 328 319 318 332 321 313 316 321 318 308 303 297 298
169 34 85 29 293 78 236 211 221 161 79 211 155 257 351 116 170 186 174 182 182 188 187 187 185 190 197 212 223 235 265 277 294 303 316 312 311 314 304 297 294 293 288 290
135 141 181 186 150 93 194 209 201 186 170 190 232 295 335 176 172 175 185 177 182 188 187 189 197 201 209 217 220 227 251 246 283 295 305 301 298 292 286 281 281 281 282 284
146 178 136 135 100 208 251 243 203 205 219 200 261 220 210 204 194 193 183 171 180 188 189 200 202 203 210 220 228 231 245 264 269 277 288 281 278 271 273 279 283 283 273 280
37 191 113 314 338 321 264 238 236 246 248 257 267 265 220 228 129 159 179 177 188 195 203 204 207 203 207 216 223 229 244 257 238 261 267 271 275 282 290 288 286 284 285 276
124 131 91 265 350 337 307 223 205 209 211 209 224 239 169 196 188 189 183 185 193 202 199 200 202 204 208 214 216 233 244 259 260 265 277 285 286 286 281 276 283 292 294 288
128 99 86 211 22 319 244 236 214 227 245 227 255 198 186 198 206 195 196 189 199 196 195 199 194 204 216 215 211 246 250 263 278 292 296 288 288 287 288 289 287 291 293 291
22 120 103 137 188 296 289 224 189 178 271 221 231 228 194 140 87 252 187 198 201 191 189 185 184 188 191 188 201 227 264 277 302 290 280 286 296 296 298 293 293 297 294 299
46 46 115 98 142 216 238 157 194 151 284 230 218 214 180 132 188 235 188 177 174 166 157 176 184 175 176 210 196 227 269 304 287 279 284 295 290 283 289 296 301 301 299 297
141 113 169 177 212 286 235 177 156 88 243 314 224 194 156 194 207 133 162 144 152 159 175 167 166 177 209 172 192 268 288 292 289 306 297 286 276 284 289 298 308 306 302 298
170 157 184 94 103 270 146 72 170 221 288 287 38 190 187 171 126 130 149 161 167 172 169 161 154 200 242 127 244 302 324 315 314 304 301 304 301 302 307 306 308 303 300 301
226 184 183 186 205 246 212 151 223 202 258 320 352 225 168 156 178 174 168 165 171 168 157 145 153 198 265 337 346 321 289 318 319 324 317 311 309 308 306 310 309 308 307 307
252 175 204 87 253 239 240 268 264 238 253 290 281 190 167 182 181 183 162 167 164 168 145 124 150 215 288 297 323 251 310 326 340 325 321 320 317 317 316 312 306 307 308 309
186 134 173 264 287 283 242 229 223 225 237 263 286 245 208 174 194 177 180 180 189 168 141 157 184 214 262 326 356 357 352 3 344 331 323 319 319 322 320 310 306 304 301 305
183 183 188 221 213 205 238 198 194 207 226 230 194 259 233 181 179 168 185 180 176 181 162 177 169 107 306 348 359 343 358 24 357 338 331 323 325 320 311 309 310 312 315 317